Regional Weather Roundup
Issued by NWS

Home | Current Version | Previous Version | Text Only | Print | Product List | Glossary Off
Versions: 1 2 3 4 5 6 7 8 9 10 11 12 13 14 15 16 17 18 19 20 21 22 23 24 25 26 27 28 29 30 31 32 33 34 35 36 37 38 39 40 41 42 43 44 45 46 47 48 49

000
ASUS45 KSLC 281810
RWRUT

UTAH REGIONAL WEATHER ROUNDUP
NATIONAL WEATHER SERVICE SALT LAKE CITY UT
1200 PM MDT FRI AUG 28 2015

UTZ001>011-023>025-281900-

NORTHERN UTAH

CITY           SKY/WX    TMP DP  RH WIND       PRES   REMARKS
BRIGHAM CITY   SUNNY     81  44  27 CALM      30.21F
HILL AFB       SUNNY     82  47  28 E5        30.23F
LOGAN          SUNNY     77  49  37 VRB6      30.22F
OGDEN          SUNNY     85  46  25 VRB7      30.20F
PROVO AIRPORT  MOSUNNY   75  52  43 SE7       30.25S
SALT LAKE CITY MOSUNNY   84  44  24 SE7       30.18F
VERNAL         SUNNY     75  46  35 SE6       30.31F
WENDOVER       SUNNY     81  43  26 E9        30.19F
HEBER CITY     SUNNY     73  43  33 CALM      30.30F
WEST JORDAN    SUNNY     84  46  26 SE12      30.23S

$$

UTZ012>022-026-027-281900-

SOUTHERN/CENTRAL UTAH

CITY           SKY/WX    TMP DP  RH WIND       PRES   REMARKS
BLANDING       PTSUNNY   81  42  25 CALM      30.35F
BRYCE CANYON   SUNNY     75  41  29 CALM      30.44F
CEDAR CITY     SUNNY     81  40  23 CALM      30.28F
DELTA          SUNNY     82  40  22 CALM      30.23F
HANKSVILLE     SUNNY     84  45  24 NE7       30.25F
MILFORD        SUNNY     84  44  24 VRB3      30.23F
MOAB/CYNLANDS  SUNNY     84  46  26 E8        30.22F
PRICE          SUNNY     79  39  23 S5        30.33F
ST GEORGE        N/A     88  54  31 W5        30.11F
KANAB          SUNNY     84  52  32 CALM      30.29F

$$

REGIONAL REPORTS     COLORADO/ARIZONA

CITY           SKY/WX    TMP DP  RH WIND       PRES   REMARKS
CRAIG, CO      SUNNY     73  50  44 VRB5      30.38F
GRAND JUNCTION SUNNY     75  52  44 SE12      30.28F
RIFLE          SUNNY     71  50  47 S3        30.34F
MONTROSE       SUNNY     75  51  43 VRB5      30.36F
CORTEZ         SUNNY     84  36  18 N12G20    30.27F
PAGE, AZ       SUNNY     86  50  28 N5        30.20S
GRAND CANYON   CLOUDY    80  43  26 NE6       30.36S
KINGMAN        SUNNY     93  51  23 W6        30.11F HX  90
FLAGSTAFF      SUNNY     76  51  41 NE10G16   30.39S

$$

REGIONAL REPORTS    NEVADA/IDAHO/WYOMING

CITY           SKY/WX    TMP DP  RH WIND       PRES   REMARKS
LAS VEGAS, NV  MOSUNNY   96  52  22 VRB5      29.97F HX  93
ELY            SUNNY     81  42  25 SE7       30.30F
ELKO           MOSUNNY   86  39  19 CALM      30.18F
POCATELLO, ID  SUNNY     84  45  25 NE6       30.18F
BURLEY         SUNNY     85  43  22 NE7       30.12F
EVANSTON, WY   MOSUNNY   76  35  22 VRB7      30.40F
ROCK SPRINGS   SUNNY     73  39  29 W6        30.38F
KEMMERER       SUNNY     75  32  20 W14       30.41F

$$


USA.gov is the U.S. government's official web portal to all federal, state and local government web resources and services.